| time (UTC) | temp F | wind direction | speed MPH | gust MPH | rain 1hr in | rain 24hr in | rain mn in | humidity % | barometer mb |
| 20260507151026 | 0 | 0.0 | 0.0 | 0.00 | 0.00 | 0.00 | 1008.5 | ||
| 20260507150530 | 0 | 0.0 | 0.0 | 0.00 | 0.00 | 0.00 | 1008.4 | ||
| 20260507150024 | 0 | 0.0 | 0.0 | 0.00 | 0.00 | 0.00 | 1008.3 | ||
| 20260507145523 | 0 | 0.0 | 0.0 | 0.00 | 0.00 | 0.00 | 1008.4 | ||
| 20260507145021 | 0 | 0.0 | 0.0 | 0.00 | 0.00 | 0.00 | 1008.3 | ||
| 20260507144527 | 0 | 0.0 | 0.0 | 0.00 | 0.00 | 0.00 | 1008.2 | ||
| 20260507144018 | 0 | 0.0 | 0.0 | 0.00 | 0.00 | 0.00 | 1008.2 | ||
| 20260507143516 | 0 | 0.0 | 0.0 | 0.00 | 0.00 | 0.00 | 1008.2 | ||
| 20260507143015 | 0 | 0.0 | 0.0 | 0.00 | 0.00 | 0.00 | 1008.1 | ||
| 20260507142514 | 0 | 0.0 | 0.0 | 0.00 | 0.00 | 0.00 | 1008.1 | ||
| 20260507142013 | 0 | 0.0 | 0.0 | 0.00 | 0.00 | 0.00 | 1008.1 | ||
| 20260507141511 | 0 | 0.0 | 0.0 | 0.00 | 0.00 | 0.00 | 1008.0 | ||
| 20260507141013 | 0 | 0.0 | 0.0 | 0.00 | 0.00 | 0.00 | 1008.0 | ||
| 20260507140508 | 0 | 0.0 | 0.0 | 0.00 | 0.00 | 0.00 | 1008.0 | ||
| 20260507140007 | 0 | 0.0 | 0.0 | 0.00 | 0.00 | 0.00 | 1008.0 | ||
| 20260507135508 | 0 | 0.0 | 0.0 | 0.00 | 0.00 | 0.00 | 1007.9 | ||
| 20260507135004 | 0 | 0.0 | 0.0 | 0.00 | 0.00 | 0.00 | 1007.8 | ||
| 20260507134502 | 0 | 0.0 | 0.0 | 0.00 | 0.00 | 0.00 | 1007.8 | ||
| 20260507134101 | 0 | 0.0 | 0.0 | 0.00 | 0.00 | 0.00 | 1007.8 | ||
| 20260507133559 | 0 | 0.0 | 0.0 | 0.00 | 0.00 | 0.00 | 1007.8 | ||
| 20260507133058 | 0 | 0.0 | 0.0 | 0.00 | 0.00 | 0.00 | 1007.7 | ||
| 20260507132556 | 0 | 0.0 | 0.0 | 0.00 | 0.00 | 0.00 | 1007.5 | ||
| 20260507132056 | 0 | 0.0 | 0.0 | 0.00 | 0.00 | 0.00 | 1007.5 | ||
| 20260507131553 | 0 | 0.0 | 0.0 | 0.00 | 0.00 | 0.00 | 1007.5 | ||
| 20260507131051 | 0 | 0.0 | 0.0 | 0.00 | 0.00 | 0.00 | 1007.5 | ||
| 20260507130549 | 0 | 0.0 | 0.0 | 0.00 | 0.00 | 0.00 | 1007.6 | ||
| 20260507130059 | 0 | 0.0 | 0.0 | 0.00 | 0.00 | 0.00 | 1007.3 | ||
| 20260507052501 | 74 | 271 | 1.0 | 10.0 | 0.00 | 0.00 | 0.00 | 46 | 1007.0 |
| 20260507052002 | 75 | 210 | 4.0 | 10.0 | 0.00 | 0.00 | 0.00 | 46 | 1007.0 |
| 20260507051501 | 75 | 266 | 5.0 | 10.0 | 0.00 | 0.00 | 0.00 | 46 | 1006.9 |
| 20260507051103 | 75 | 240 | 3.0 | 10.0 | 0.00 | 0.00 | 0.00 | 46 | 1006.8 |
| 20260507050603 | 75 | 191 | 4.0 | 8.0 | 0.00 | 0.00 | 0.00 | 45 | 1006.7 |
| 20260507050100 | 75 | 228 | 3.0 | 11.0 | 0.00 | 0.00 | 0.00 | 46 | 1006.6 |
| 20260507045606 | 75 | 321 | 3.0 | 12.0 | 0.00 | 0.00 | 0.00 | 46 | 1006.5 |
| 20260507045059 | 75 | 245 | 5.0 | 14.0 | 0.00 | 0.00 | 0.00 | 47 | 1006.6 |
| 20260507044601 | 75 | 258 | 5.0 | 13.0 | 0.00 | 0.00 | 0.00 | 47 | 1006.7 |
| 20260507044200 | 75 | 231 | 7.0 | 13.0 | 0.00 | 0.00 | 0.00 | 47 | 1006.8 |
| 20260507043559 | 75 | 240 | 6.0 | 14.0 | 0.00 | 0.00 | 0.00 | 47 | 1006.8 |
| 20260507043102 | 75 | 156 | 4.0 | 16.0 | 0.00 | 0.00 | 0.00 | 46 | 1006.5 |
| 20260507042559 | 75 | 203 | 5.0 | 16.0 | 0.00 | 0.00 | 0.00 | 46 | 1006.6 |
| 20260507042059 | 75 | 243 | 7.0 | 16.0 | 0.00 | 0.00 | 0.00 | 46 | 1006.4 |
| 20260507041558 | 75 | 203 | 7.0 | 16.0 | 0.00 | 0.00 | 0.00 | 46 | 1006.3 |
| 20260507041057 | 75 | 243 | 10.0 | 16.0 | 0.00 | 0.00 | 0.00 | 46 | 1006.3 |
| 20260507040557 | 75 | 203 | 6.0 | 15.0 | 0.00 | 0.00 | 0.00 | 46 | 1006.2 |
| 20260507040057 | 75 | 224 | 6.0 | 18.0 | 0.00 | 0.00 | 0.00 | 46 | 1006.5 |
| 20260507035557 | 76 | 245 | 8.0 | 18.0 | 0.00 | 0.00 | 0.00 | 46 | 1006.4 |
| 20260507035057 | 76 | 210 | 6.0 | 15.0 | 0.00 | 0.00 | 0.00 | 46 | 1006.2 |
| 20260507034557 | 77 | 261 | 7.0 | 18.0 | 0.00 | 0.00 | 0.00 | 45 | 1005.9 |
| 20260507034056 | 77 | 208 | 7.0 | 18.0 | 0.00 | 0.00 | 0.00 | 44 | 1005.8 |
| 20260507033555 | 78 | 229 | 9.0 | 17.0 | 0.00 | 0.00 | 0.00 | 43 | 1005.7 |
| 20260507033057 | 78 | 256 | 8.0 | 13.0 | 0.00 | 0.00 | 0.00 | 41 | 1005.7 |
| 20260507032556 | 79 | 216 | 3.0 | 8.0 | 0.00 | 0.00 | 0.00 | 40 | 1005.6 |
| 20260507032055 | 79 | 253 | 2.0 | 6.0 | 0.00 | 0.00 | 0.00 | 40 | 1005.3 |
| 20260507031556 | 80 | 192 | 0.0 | 8.0 | 0.00 | 0.00 | 0.00 | 41 | 1005.1 |
| 20260507031101 | 80 | 227 | 2.0 | 9.0 | 0.00 | 0.00 | 0.00 | 41 | 1004.9 |
| 20260507030555 | 80 | 320 | 3.0 | 9.0 | 0.00 | 0.00 | 0.00 | 41 | 1004.6 |
| 20260507030055 | 80 | 326 | 2.0 | 8.0 | 0.00 | 0.00 | 0.00 | 40 | 1004.3 |
| 20260507025600 | 80 | 129 | 1.0 | 11.0 | 0.00 | 0.00 | 0.00 | 40 | 1004.1 |
| 20260507025057 | 80 | 250 | 4.0 | 12.0 | 0.00 | 0.00 | 0.00 | 40 | 1004.0 |
| 20260507024611 | 81 | 354 | 6.0 | 15.0 | 0.00 | 0.00 | 0.00 | 39 | 1004.0 |
| 20260507024053 | 81 | 349 | 6.0 | 17.0 | 0.00 | 0.00 | 0.00 | 39 | 1003.9 |
| 20260507023559 | 81 | 320 | 7.0 | 17.0 | 0.00 | 0.00 | 0.00 | 39 | 1003.7 |
| 20260507023053 | 81 | 358 | 7.0 | 16.0 | 0.00 | 0.00 | 0.00 | 38 | 1003.6 |
| 20260507022555 | 82 | 293 | 5.0 | 16.0 | 0.00 | 0.00 | 0.00 | 38 | 1003.6 |
| 20260507022054 | 82 | 314 | 4.0 | 9.0 | 0.00 | 0.00 | 0.00 | 37 | 1003.6 |
| 20260507021553 | 83 | 39 | 2.0 | 10.0 | 0.00 | 0.00 | 0.00 | 36 | 1003.5 |
| 20260507021055 | 83 | 292 | 4.0 | 11.0 | 0.00 | 0.00 | 0.00 | 36 | 1003.5 |
| 20260507020552 | 83 | 316 | 3.0 | 13.0 | 0.00 | 0.00 | 0.00 | 36 | 1003.3 |
| 20260507020107 | 83 | 307 | 3.0 | 13.0 | 0.00 | 0.00 | 0.00 | 34 | 1003.3 |
| 20260507015551 | 84 | 302 | 1.0 | 5.0 | 0.00 | 0.00 | 0.00 | 32 | 1003.2 |
| 20260507015051 | 84 | 65 | 0.0 | 1.0 | 0.00 | 0.00 | 0.00 | 33 | 1002.9 |
| 20260507014603 | 85 | 65 | 0.0 | 1.0 | 0.00 | 0.00 | 0.00 | 32 | 1002.8 |
| 20260507014051 | 85 | 67 | 0.0 | 1.0 | 0.00 | 0.00 | 0.00 | 31 | 1002.6 |
| 20260507013550 | 85 | 68 | 0.0 | 1.0 | 0.00 | 0.00 | 0.00 | 31 | 1002.5 |
| 20260507013053 | 85 | 68 | 0.0 | 1.0 | 0.00 | 0.00 | 0.00 | 31 | 1002.5 |
| 20260507012551 | 85 | 68 | 0.0 | 1.0 | 0.00 | 0.00 | 0.00 | 31 | 1002.4 |
| 20260507012049 | 86 | 67 | 0.0 | 2.0 | 0.00 | 0.00 | 0.00 | 31 | 1002.4 |
| 20260507011549 | 86 | 64 | 0.0 | 2.0 | 0.00 | 0.00 | 0.00 | 30 | 1002.3 |
| 20260507011049 | 86 | 97 | 0.0 | 1.0 | 0.00 | 0.00 | 0.00 | 30 | 1002.3 |
| 20260507010648 | 87 | 97 | 0.0 | 1.0 | 0.00 | 0.00 | 0.00 | 30 | 1002.3 |
| 20260507010048 | 87 | 99 | 0.0 | 1.0 | 0.00 | 0.00 | 0.00 | 30 | 1002.2 |
| 20260507005548 | 88 | 99 | 0.0 | 1.0 | 0.00 | 0.00 | 0.00 | 30 | 1002.3 |
| 20260507005047 | 88 | 101 | 0.0 | 1.0 | 0.00 | 0.00 | 0.00 | 30 | 1002.2 |
| 20260507004548 | 88 | 110 | 0.0 | 1.0 | 0.00 | 0.00 | 0.00 | 29 | 1002.1 |
| 20260507004048 | 88 | 101 | 0.0 | 1.0 | 0.00 | 0.00 | 0.00 | 28 | 1002.1 |
| 20260507003548 | 89 | 82 | 0.0 | 3.0 | 0.00 | 0.00 | 0.00 | 28 | 1002.0 |
| 20260507003048 | 89 | 109 | 0.0 | 3.0 | 0.00 | 0.00 | 0.00 | 28 | 1001.9 |
| 20260507002547 | 89 | 99 | 0.0 | 6.0 | 0.00 | 0.00 | 0.00 | 27 | 1001.8 |
| 20260507002047 | 90 | 60 | 1.0 | 6.0 | 0.00 | 0.00 | 0.00 | 28 | 1001.8 |
| 20260507001553 | 90 | 101 | 0.0 | 3.0 | 0.00 | 0.00 | 0.00 | 27 | 1001.7 |
| 20260507001046 | 90 | 339 | 0.0 | 5.0 | 0.00 | 0.00 | 0.00 | 26 | 1001.6 |
| 20260507000547 | 90 | 114 | 0.0 | 6.0 | 0.00 | 0.00 | 0.00 | 27 | 1001.5 |
| 20260507000049 | 91 | 74 | 1.0 | 6.0 | 0.00 | 0.00 | 0.00 | 26 | 1001.5 |
| 20260506235546 | 91 | 111 | 0.0 | 8.0 | 0.00 | 0.00 | 0.00 | 27 | 1001.4 |
| 20260506235048 | 91 | 76 | 2.0 | 8.0 | 0.00 | 0.00 | 0.00 | 27 | 1001.2 |
| 20260506234552 | 91 | 101 | 0.0 | 4.0 | 0.00 | 0.00 | 0.00 | 27 | 1001.3 |
| 20260506234046 | 91 | 116 | 0.0 | 6.0 | 0.00 | 0.00 | 0.00 | 27 | 1001.2 |
| 20260506233546 | 91 | 139 | 1.0 | 8.0 | 0.00 | 0.00 | 0.00 | 27 | 1001.1 |
| 20260506233045 | 91 | 89 | 2.0 | 8.0 | 0.00 | 0.00 | 0.00 | 27 | 1001.1 |
| 20260506232546 | 91 | 305 | 1.0 | 6.0 | 0.00 | 0.00 | 0.00 | 27 | 1001.1 |
| 20260506232044 | 91 | 59 | 1.0 | 8.0 | 0.00 | 0.00 | 0.00 | 27 | 1001.0 |
| 20260506231552 | 91 | 71 | 1.0 | 5.0 | 0.00 | 0.00 | 0.00 | 27 | 1001.0 |
| 20260506231045 | 91 | 117 | 0.0 | 4.0 | 0.00 | 0.00 | 0.00 | 26 | 1001.0 |
| 20260506230543 | 91 | 64 | 0.0 | 4.0 | 0.00 | 0.00 | 0.00 | 26 | 1001.1 |
| 20260506230054 | 91 | 116 | 1.0 | 4.0 | 0.00 | 0.00 | 0.00 | 26 | 1001.0 |
| 20260506225542 | 91 | 155 | 0.0 | 8.0 | 0.00 | 0.00 | 0.00 | 27 | 1001.1 |
| 20260506225042 | 91 | 77 | 3.0 | 8.0 | 0.00 | 0.00 | 0.00 | 27 | 1001.2 |
| 20260506224541 | 91 | 70 | 1.0 | 10.0 | 0.00 | 0.00 | 0.00 | 27 | 1001.3 |
| 20260506224040 | 91 | 110 | 2.0 | 10.0 | 0.00 | 0.00 | 0.00 | 27 | 1001.4 |
| 20260506223542 | 91 | 96 | 4.0 | 10.0 | 0.00 | 0.00 | 0.00 | 27 | 1001.4 |
| 20260506223050 | 92 | 142 | 1.0 | 10.0 | 0.00 | 0.00 | 0.00 | 27 | 1001.5 |
| 20260506222539 | 92 | 42 | 2.0 | 10.0 | 0.00 | 0.00 | 0.00 | 27 | 1001.5 |
| 20260506222038 | 91 | 89 | 1.0 | 11.0 | 0.00 | 0.00 | 0.00 | 28 | 1001.5 |
| 20260506221538 | 91 | 110 | 4.0 | 10.0 | 0.00 | 0.00 | 0.00 | 27 | 1001.6 |
| 20260506221038 | 92 | 75 | 2.0 | 10.0 | 0.00 | 0.00 | 0.00 | 26 | 1001.6 |
| 20260506220539 | 92 | 96 | 3.0 | 9.0 | 0.00 | 0.00 | 0.00 | 27 | 1001.6 |
| 20260506220038 | 92 | 116 | 1.0 | 6.0 | 0.00 | 0.00 | 0.00 | 27 | 1001.8 |
| 20260506215541 | 92 | 117 | 1.0 | 7.0 | 0.00 | 0.00 | 0.00 | 26 | 1001.8 |
| 20260506215035 | 92 | 110 | 3.0 | 11.0 | 0.00 | 0.00 | 0.00 | 27 | 1002.0 |
| 20260506214536 | 92 | 67 | 4.0 | 11.0 | 0.00 | 0.00 | 0.00 | 28 | 1001.9 |
| 20260506214036 | 92 | 96 | 4.0 | 11.0 | 0.00 | 0.00 | 0.00 | 26 | 1002.0 |
| 20260506213534 | 92 | 92 | 4.0 | 10.0 | 0.00 | 0.00 | 0.00 | 27 | 1002.0 |
| 20260506213045 | 92 | 237 | 0.0 | 7.0 | 0.00 | 0.00 | 0.00 | 26 | 1002.1 |
| 20260506212533 | 92 | 56 | 1.0 | 9.0 | 0.00 | 0.00 | 0.00 | 26 | 1002.3 |
| 20260506212038 | 92 | 27 | 3.0 | 9.0 | 0.00 | 0.00 | 0.00 | 27 | 1002.2 |
| 20260506211542 | 92 | 15 | 1.0 | 12.0 | 0.00 | 0.00 | 0.00 | 27 | 1002.4 |
| 20260506211030 | 92 | 125 | 3.0 | 12.0 | 0.00 | 0.00 | 0.00 | 27 | 1002.4 |
| 20260506210528 | 91 | 98 | 2.0 | 14.0 | 0.00 | 0.00 | 0.00 | 27 | 1002.5 |
| 20260506210033 | 91 | 84 | 1.0 | 14.0 | 0.00 | 0.00 | 0.00 | 27 | 1002.6 |
| 20260506205526 | 91 | 127 | 1.0 | 11.0 | 0.00 | 0.00 | 0.00 | 28 | 1002.5 |
| 20260506205026 | 91 | 110 | 2.0 | 8.0 | 0.00 | 0.00 | 0.00 | 27 | 1002.7 |
| 20260506204526 | 91 | 136 | 0.0 | 11.0 | 0.00 | 0.00 | 0.00 | 28 | 1002.7 |
| 20260506204025 | 91 | 86 | 4.0 | 11.0 | 0.00 | 0.00 | 0.00 | 27 | 1002.8 |
| 20260506203523 | 91 | 283 | 1.0 | 12.0 | 0.00 | 0.00 | 0.00 | 27 | 1002.8 |
| 20260506203028 | 91 | 90 | 3.0 | 12.0 | 0.00 | 0.00 | 0.00 | 27 | 1003.0 |
| 20260506202521 | 91 | 170 | 2.0 | 12.0 | 0.00 | 0.00 | 0.00 | 27 | 1003.2 |
| 20260506202024 | 90 | 142 | 1.0 | 12.0 | 0.00 | 0.00 | 0.00 | 28 | 1003.3 |
| 20260506201531 | 91 | 103 | 4.0 | 11.0 | 0.00 | 0.00 | 0.00 | 27 | 1003.4 |
| 20260506201019 | 90 | 63 | 4.0 | 10.0 | 0.00 | 0.00 | 0.00 | 26 | 1003.5 |
| 20260506200518 | 90 | 98 | 3.0 | 10.0 | 0.00 | 0.00 | 0.00 | 28 | 1003.6 |
| 20260506200017 | 91 | 96 | 3.0 | 9.0 | 0.00 | 0.00 | 0.00 | 27 | 1003.7 |
| 20260506195517 | 90 | 96 | 3.0 | 10.0 | 0.00 | 0.00 | 0.00 | 28 | 1003.9 |
| 20260506195016 | 90 | 126 | 3.0 | 12.0 | 0.00 | 0.00 | 0.00 | 27 | 1004.0 |
| 20260506194515 | 90 | 80 | 5.0 | 12.0 | 0.00 | 0.00 | 0.00 | 27 | 1004.0 |
| 20260506194014 | 90 | 96 | 5.0 | 12.0 | 0.00 | 0.00 | 0.00 | 27 | 1004.3 |
| 20260506193514 | 90 | 120 | 3.0 | 16.0 | 0.00 | 0.00 | 0.00 | 27 | 1004.4 |
| 20260506193012 | 90 | 81 | 1.0 | 11.0 | 0.00 | 0.00 | 0.00 | 27 | 1004.6 |
| 20260506192511 | 90 | 224 | 4.0 | 12.0 | 0.00 | 0.00 | 0.00 | 27 | 1004.6 |
| 20260506192010 | 89 | 61 | 5.0 | 12.0 | 0.00 | 0.00 | 0.00 | 27 | 1004.7 |
| 20260506191509 | 89 | 104 | 2.0 | 11.0 | 0.00 | 0.00 | 0.00 | 27 | 1004.9 |
| 20260506191011 | 89 | 146 | 3.0 | 10.0 | 0.00 | 0.00 | 0.00 | 26 | 1005.0 |
| 20260506190507 | 89 | 94 | 3.0 | 11.0 | 0.00 | 0.00 | 0.00 | 27 | 1005.1 |
| 20260506190006 | 89 | 142 | 1.0 | 11.0 | 0.00 | 0.00 | 0.00 | 27 | 1005.4 |
| 20260506185504 | 89 | 79 | 2.0 | 11.0 | 0.00 | 0.00 | 0.00 | 27 | 1005.5 |
| 20260506185004 | 89 | 53 | 2.0 | 10.0 | 0.00 | 0.00 | 0.00 | 27 | 1005.7 |
| 20260506184504 | 89 | 110 | 4.0 | 10.0 | 0.00 | 0.00 | 0.00 | 26 | 1005.7 |
| 20260506184006 | 89 | 134 | 0.0 | 9.0 | 0.00 | 0.00 | 0.00 | 27 | 1005.9 |
| 20260506183502 | 89 | 46 | 3.0 | 9.0 | 0.00 | 0.00 | 0.00 | 27 | 1005.9 |
| 20260506183002 | 88 | 17 | 1.0 | 11.0 | 0.00 | 0.00 | 0.00 | 27 | 1005.9 |
| 20260506182502 | 88 | 93 | 5.0 | 11.0 | 0.00 | 0.00 | 0.00 | 27 | 1006.0 |
| 20260506182000 | 88 | 85 | 3.0 | 9.0 | 0.00 | 0.00 | 0.00 | 26 | 1006.1 |
| 20260506181601 | 88 | 114 | 2.0 | 9.0 | 0.00 | 0.00 | 0.00 | 27 | 1006.2 |
| 20260506181100 | 87 | 94 | 2.0 | 9.0 | 0.00 | 0.00 | 0.00 | 27 | 1006.3 |
| 20260506180600 | 87 | 72 | 3.0 | 9.0 | 0.00 | 0.00 | 0.00 | 27 | 1006.4 |
| 20260506180100 | 88 | 104 | 4.0 | 10.0 | 0.00 | 0.00 | 0.00 | 26 | 1006.5 |
| 20260506175558 | 88 | 109 | 2.0 | 10.0 | 0.00 | 0.00 | 0.00 | 27 | 1006.6 |
| 20260506175057 | 88 | 92 | 2.0 | 7.0 | 0.00 | 0.00 | 0.00 | 27 | 1006.6 |
| 20260506174559 | 87 | 299 | 0.0 | 9.0 | 0.00 | 0.00 | 0.00 | 27 | 1006.7 |
| 20260506174058 | 88 | 131 | 2.0 | 9.0 | 0.00 | 0.00 | 0.00 | 27 | 1006.7 |
| 20260506173557 | 88 | 262 | 0.0 | 8.0 | 0.00 | 0.00 | 0.00 | 28 | 1006.8 |
| 20260506173103 | 87 | 11 | 2.0 | 10.0 | 0.00 | 0.00 | 0.00 | 28 | 1007.0 |
| 20260506172558 | 87 | 64 | 7.0 | 10.0 | 0.00 | 0.00 | 0.00 | 28 | 1007.0 |
| 20260506172053 | 0 | 0.0 | 0.0 | 0.00 | 0.00 | 0.00 | 1007.2 | ||
| 20260506171554 | 0 | 0.0 | 0.0 | 0.00 | 0.00 | 0.00 | 1007.2 | ||
| 20260506171053 | 0 | 0.0 | 0.0 | 0.00 | 0.00 | 0.00 | 1007.2 | ||
| 20260506170549 | 0 | 0.0 | 0.0 | 0.00 | 0.00 | 0.00 | 1007.2 | ||
| 20260506170106 | 0 | 0.0 | 0.0 | 0.00 | 0.00 | 0.00 | 1007.3 | ||
| 20260506165550 | 0 | 0.0 | 0.0 | 0.00 | 0.00 | 0.00 | 1007.3 | ||
| 20260506165048 | 0 | 0.0 | 0.0 | 0.00 | 0.00 | 0.00 | 1007.6 | ||
| 20260506164543 | 0 | 0.0 | 0.0 | 0.00 | 0.00 | 0.00 | 1007.6 | ||
| 20260506164041 | 0 | 0.0 | 0.0 | 0.00 | 0.00 | 0.00 | 1007.6 | ||
| 20260506163540 | 0 | 0.0 | 0.0 | 0.00 | 0.00 | 0.00 | 1007.5 | ||
| 20260506163046 | 0 | 0.0 | 0.0 | 0.00 | 0.00 | 0.00 | 1007.5 | ||
| 20260506162538 | 0 | 0.0 | 0.0 | 0.00 | 0.00 | 0.00 | 1007.6 | ||
| 20260506162038 | 0 | 0.0 | 0.0 | 0.00 | 0.00 | 0.00 | 1007.7 | ||
| 20260506161535 | 0 | 0.0 | 0.0 | 0.00 | 0.00 | 0.00 | 1007.7 | ||
| 20260506161032 | 0 | 0.0 | 0.0 | 0.00 | 0.00 | 0.00 | 1007.7 | ||
| 20260506160530 | 0 | 0.0 | 0.0 | 0.00 | 0.00 | 0.00 | 1007.8 | ||
| 20260506160030 | 0 | 0.0 | 0.0 | 0.00 | 0.00 | 0.00 | 1007.7 | ||
| 20260506155529 | 0 | 0.0 | 0.0 | 0.00 | 0.00 | 0.00 | 1007.7 | ||
| 20260506155026 | 0 | 0.0 | 0.0 | 0.00 | 0.00 | 0.00 | 1007.7 | ||
| 20260506154527 | 0 | 0.0 | 0.0 | 0.00 | 0.00 | 0.00 | 1007.8 | ||
| 20260506154024 | 0 | 0.0 | 0.0 | 0.00 | 0.00 | 0.00 | 1007.7 | ||
| 20260506153523 | 0 | 0.0 | 0.0 | 0.00 | 0.00 | 0.00 | 1007.7 | ||
| 20260506153021 | 0 | 0.0 | 0.0 | 0.00 | 0.00 | 0.00 | 1007.8 | ||
| 20260506152518 | 0 | 0.0 | 0.0 | 0.00 | 0.00 | 0.00 | 1007.8 | ||
| 20260506152019 | 0 | 0.0 | 0.0 | 0.00 | 0.00 | 0.00 | 1007.7 | ||
| 20260506151518 | 0 | 0.0 | 0.0 | 0.00 | 0.00 | 0.00 | 1007.7 |